Regional Weather Roundup
Issued by NWS

Home | Current Version | Previous Version | Graphics & Text | Print | Product List | Glossary Off
Versions: 1 2 3 4 5 6 7 8 9 10 11 12 13 14 15 16 17 18 19 20 21 22 23 24 25 26 27 28 29 30 31 32 33 34 35 36 37 38 39 40 41 42 43 44 45 46 47 48 49 50

000
ASUS43 KMKX 182210
RWRWI

WISCONSIN REGIONAL WEATHER ROUNDUP
NATIONAL WEATHER SERVICE MILWAUKEE/SULLIVAN WI
400 PM CST SUN FEB 18 2018

NOTE: "FAIR" INDICATES FEW OR NO CLOUDS BELOW 12,000 FEET WITH NO
SIGNIFICANT WEATHER AND/OR OBSTRUCTIONS TO VISIBILITY.

WIZ001-002-006>008-014>016-023>028-182300-
NORTHWEST WISCONSIN

CITY           SKY/WX    TMP DP  RH WIND       PRES   REMARKS
SUPERIOR ARPT  LGT SNOW  24  20  86 E12G17    29.72R WCI  13
ASHLAND        CLOUDY    23  18  81 N10       29.71S WCI  12
HAYWARD        CLOUDY    38  25  59 S12       29.65S WCI  30
SIREN          CLOUDY    40  27  59 S14       29.63S WCI  32
CUMBERLAND     CLOUDY    37  25  60 S15       29.64S WCI  28
RICE LAKE      FAIR      38  27  65 SE10      29.67S WCI  31
CHETEK         FAIR      38  27  63 S9        29.67S WCI  32
LADYSMITH      PTSUNNY   38  26  59 S16G23    29.70F WCI  30
EAU CLAIRE     FAIR      40  25  55 S17G29    29.69F WCI  31
MENOMONIE      FAIR      43  24  47 S17       29.68S
NEW RICHMOND   FAIR      41  26  56 S16G28    29.64S
OSCEOLA        FAIR      41  29  61 S13G21    29.66R
$$

WIZ003>005-009-010-017-018-182300-
NORTH CENTRAL WISCONSIN

CITY           SKY/WX    TMP DP  RH WIND       PRES   REMARKS
MANITOWISH WTR CLOUDY    31  20  64 S15G22    29.70R WCI  20
ARBOR VITAE    PTSUNNY   33  23  66 S13G22    29.71R WCI  24
WOODRUFF       PTSUNNY   33  23  66 S13G22    29.71R WCI  24
RHINELANDER    FAIR      33  22  63 S15       29.73F WCI  23
EAGLE RIVER    FAIR      31  19  60 S10G24    29.72S WCI  22
LAND O LAKES   CLOUDY    31  19  60 S15G22    29.71F WCI  21
PHILLIPS       CLOUDY    34  24  66 S15G25    29.69S WCI  24
TOMAHAWK       PTSUNNY   33  22  64 S7        29.73S WCI  27
MEDFORD        FAIR      35  24  64 S15G22    29.74R WCI  25
MERRILL        CLOUDY    36  24  61 S12G22    29.76R WCI  27
$$

WIZ029-030-035-036-043>047-182300-
CENTRAL WISCONSIN

CITY           SKY/WX    TMP DP  RH WIND       PRES   REMARKS
WAUSAU         FAIR      35  24  64 S29G35    29.74F WCI  22
MOSINEE        PTSUNNY   36  25  64 S25G32    29.78F WCI  23
MARSHFIELD     FAIR      35  25  66 S22G35    29.72F WCI  23
STEVENS POINT  FAIR      33  23  67 SE15      29.81F WCI  22
WAUPACA        CLOUDY    35  24  64 S17G26    29.87F WCI  25
WAUTOMA        CLOUDY    34  24  67 S16G23    29.86  WCI  24
WISC RAPIDS    FAIR      36  22  56 S20G30    29.81F WCI  25
CAMP DOUGLAS   PTSUNNY   38  26  61 SE17G23   29.78F WCI  28
$$

WIZ011>013-019>022-031-037>040-048>050-182300-
NORTHEAST WISCONSIN

CITY           SKY/WX    TMP DP  RH WIND       PRES   REMARKS
ANTIGO         FAIR      31  24  75 S28G35    29.77F HAZE    WCI  16
SHAWANO        CLOUDY    37  23  57 S14G21    29.87F WCI  28
OCONTO         CLOUDY    32  26  78 S14G23    29.91F WCI  22
STURGEON BAY   CLOUDY    32  27  81 S22G31    29.92F WCI  19
GREEN BAY      CLOUDY    34  26  72 SE20      29.91F WCI  23
MANITOWOC      CLOUDY    32  28  85 S24G31    29.96F WCI  19
APPLETON       CLOUDY    36  19  51 S17       29.89F WCI  25
CLINTONVILLE   CLOUDY    35  23  62 S14G23    29.88F WCI  25
OSHKOSH        CLOUDY    36  24  62 S23G31    29.89F WCI  24
$$

WIZ032>034-041-042-053>061-182300-
SOUTHWEST WISCONSIN

CITY           SKY/WX    TMP DP  RH WIND       PRES   REMARKS
LA CROSSE      FAIR      42  26  53 S18G26    29.73F
SPARTA         FAIR      39  26  58 S14G25    29.75F WCI  31
VIROQUA        FAIR      37  28  70 S20G29    29.75F WCI  27
BOSCOBEL       CLOUDY    41  26  55 S8        29.82F
PRAIRIE DU CHI FAIR      40  25  53 SE9G22    29.78F WCI  35
PLATTEVILLE    FAIR      37  29  74 SE18G28   29.85F WCI  27
$$

WIZ056-057-062-063-064-067-068-182300-
SOUTH CENTRAL WISCONSIN

CITY           SKY/WX    TMP DP  RH WIND       PRES   REMARKS
REEDSBURG      CLOUDY    37  25  62 S14G21    29.83F WCI  28
BARABOO/DELLS  CLOUDY    36  25  62 S17G28    29.84F WCI  26
LONE ROCK      CLOUDY    38  26  62 S18G26    29.85F WCI  28
MINERAL POINT  FAIR      36  32  87 SE18G25   29.84F WCI  25
MADISON        PTSUNNY   34  25  69 S22G31    29.91F WCI  22
MIDDLETON      FAIR      36  27  67 S15G25    29.89F WCI  27
WATERTOWN      FAIR      35  24  64 S12G20    29.95F WCI  27
MONROE         FAIR      32  28  86 SE21G26   29.90F WCI  20
JANESVILLE     CLOUDY    36  27  69 S20G25    29.96F WCI  25
$$

WIZ051-052-058>065-066-070>072-182300-
SOUTHEAST WISCONSIN

CITY           SKY/WX    TMP DP  RH WIND       PRES   REMARKS
MILWAUKEE      PTSUNNY   34  27  75 S18       30.02F WCI  23
WAUKESHA       SUNNY     34  23  64 S17       29.99F WCI  23
MILWAUKEE/TIMM SUNNY     36  23  60 SE14      30.01F WCI  27
RACINE         FAIR      32  28  85 S21G33    30.04F WCI  20
BURLINGTON     FAIR      37  24  59 S9G22     30.00F WCI  30
KENOSHA        FAIR      35  27  72 S16G23    30.03F WCI  25
FOND DU LAC    CLOUDY    37  23  56 S21G26    29.92F WCI  26
SHEBOYGAN      FAIR      32  28  85 S22G31    29.98F WCI  19
WEST BEND      FAIR      34  28  80 SE12G17   29.98F WCI  25
JUNEAU         FAIR      35  25  66 SE21G26   29.94F WCI  24
$$

LSZ147-162-182300-
LAKE SUPERIOR

STATION/POSITION TIME  TEMP    WIND        PRES    WAVE
                       AIR SEA DIR/SP/G            HT/PER
                 (UTC) (F)     (DEG/KT/KT) (MB)    (FT/S)
DEVILS ISLAND    2200   24      60/ 24/ 27 1008.3F
SAXON HARBOR     2140   30      50/  4/  6 1006.1S
$$

LMZ867-665-643>646-182300-
LAKE MICHIGAN

STATION/POSITION TIME  TEMP    WIND        PRES    WAVE
                       AIR SEA DIR/SP/G            HT/PER
                 (UTC) (F)     (DEG/KT/KT) (MB)    (FT/S)
NORTHPORT PIER   2140   33                 1014.2F
KEWAUNEE LAKESHO 2148   32     170/ 25/ 32 1014.4F
SHEBOYGAN LAKESH 2200   32     160/ 32/ 36 1015.4F
PORT WASHINGTON  2140   33     160/ 23/ 27 1017.6F
MILWAUKEE LAKESH 2150   31     150/ 23/ 25   N/A
KENOSHA   LAKESH 2200   32     160/ 21/ 28 1016.9
$$

TC  - TEMPERATURE IN CELSIUS
VSB - VISIBILITY IN STATUTE MILES
WCI - WIND CHILL INDEX
HX  - HEAT INDEX




USA.gov is the U.S. government's official web portal to all federal, state and local government web resources and services.